Regional Weather Roundup
Issued by NWS

Home | Current Version | Previous Version | Text Only | Print | Product List | Glossary On
Versions: 1 2 3 4 5 6 7 8 9 10 11 12 13 14 15 16 17 18 19 20 21 22 23 24 25 26 27 28 29 30 31 32 33 34 35 36 37 38 39 40 41 42 43 44 45 46 47 48 49 50
779
ASUS43 KLOT 241808
RWRIL

ILLINOIS REGIONAL WEATHER ROUNDUP
NATIONAL WEATHER SERVICE CHICAGO/ROMEOVILLE IL
100 PM CDT TUE MAY 24 2016

NOTE: "FAIR" INDICATES FEW OR NO CLOUDS BELOW 12,000 FEET WITH NO
SIGNIFICANT WEATHER AND/OR OBSTRUCTIONS TO VISIBILITY.

* THESE STATIONS ARE NOT UNDER NWS QUALITY CONTROL. THEY ALSO MAY NOT
  REPORT WEATHER SUCH AS PRECIPITATION OR FOG.

ILZ001-002-007-009-015-016-024-241900-
NORTHWEST ILLINOIS

CITY           SKY/WX    TMP DP  RH WIND       PRES   REMARKS
MOLINE         MOSUNNY   84  59  42 S13       29.93F HX  84
6HR MIN TEMP:  66; 6HR MAX TEMP:  85;

STERLING*      MOSUNNY   83  59  44 S8        29.96F HX  83
SAVANNA*       CLOUDY    82  60  47 SW13      29.94F HX  82
$$

ILZ003-004-008-010-011-017-018-241900-
NORTH CENTRAL ILLINOIS

CITY           SKY/WX    TMP DP  RH WIND       PRES   REMARKS
ROCKFORD       CLOUDY    82  57  42 W13G22    29.97S HX  82
6HR MIN TEMP:  60; 6HR MAX TEMP:  83;

FREEPORT*      CLOUDY    80  60  50 S15G24    29.97S HX  81
ROCHELLE*      PTSUNNY   84  58  41 S15G22    29.97F HX  83
DE KALB*       MOSUNNY   82  60  46 S15G25    29.99S HX  82
$$

ILZ005-006-012>014-019>023-241900-
NORTHEAST ILLINOIS

CITY           SKY/WX    TMP DP  RH WIND       PRES   REMARKS
CHICAGO-OHARE  PTSUNNY   82  52  35 SW20      29.97F HX  81
6HR MIN TEMP:  61; 6HR MAX TEMP:  82;

CHICAGO-MIDWAY MOSUNNY   85  49  28 S15G26    29.98F HX  83
6HR MIN TEMP:  65; 6HR MAX TEMP:  85;

AURORA         SUNNY     84  56  38 S12       29.98F HX  83
6HR MIN TEMP:  59; 6HR MAX TEMP:  84;

LANSING*       SUNNY     83  48  29 SW18G24   29.99F HX  81
JOLIET*        SUNNY     85  54  34 S13       29.99S HX  83
WAUKEGAN       SUNNY     82  57  42 SW14G25   29.96F HX  82
6HR MIN TEMP:  62; 6HR MAX TEMP:  83; 6HR PCP: TRACE;

DUPAGE AIRPORT SUNNY     82  54  37 SW17      29.98S HX  81
6HR MIN TEMP:  56; 6HR MAX TEMP:  82;

KANKAKEE*      SUNNY    N/A N/A N/A S14G22    30.01S
WHEELING       SUNNY     83  52  34 S10G20    29.98F HX  82
6HR MIN TEMP:  61; 6HR MAX TEMP:  83;

MORRIS*        SUNNY     85  49  28 SW17G24   29.97F HX  83
ROMEOVILLE*    SUNNY     85  46  25 SW16G23   29.99S HX  82
NORTHERLY ISL    N/A     83  46  27 S7          N/A  HX  81
NORTHERLY ISL    N/A     83  46  27 S7          N/A  HX  81
$$

LMZ740>746-241900-
SOUTHERN LAKE MICHIGAN

STATION/POSITION SKY/WX   TEMP    WIND        PRES    VSBY  WAVE
                          AIR SEA DIR/SP/G                  HT/PER
                          (F)     (DEG/KT/KT) (MB)    (MI)  (FT/S)
SOUTHERN BUOY              53 48  160/ 10/ 10 1015.4F         1
WILMETTE HARBOR            70 56  230/  8/ 10   N/A           1/ 2
HARRISON CRIB              79     210/ 18/ 19   N/A
BURNHAM HARBOR             82     190/ 10/ 17   N/A
CALUMET HARBOR             80     190/  9/ 19 1015.0F
BURNS HARBOR               79     220/ 15/ 21 1016.3F
MICHIGAN CITY              74     190/  1/  5   N/A
MICHIGAN CITY 6N           73 58   CALM  /  2   N/A           0
ST. JOSEPH                 71 60   CALM  /  2   N/A           1
$$

ILZ025>027-034>036-040-047-049-050-058-095>099-241900-
WEST-CENTRAL ILLINOIS

CITY           SKY/WX    TMP DP  RH WIND       PRES   REMARKS
QUINCY         SUNNY     80  61  52 S9        29.94F HX  81
GALESBURG*     MOSUNNY   81  60  48 S13G18    29.96F HX  81
MACOMB*        MOSUNNY   82  59  45 S9G16     29.98F HX  82
JACKSONVILLE*  MOSUNNY   82  60  47 SE10      29.97F HX  82
PITTSFIELD*    SUNNY     81  62  53 S6        29.97F HX  82
$$

ILZ028>032-037-038-041>044-048-051>054-059>061-241900-
CENTRAL ILLINOIS

CITY           SKY/WX    TMP DP  RH WIND       PRES   REMARKS
PONTIAC        SUNNY     86  52  30 S21       29.99F HX  84
BLOOMINGTON    SUNNY     83  57  40 S17G23    30.01F HX  82
DECATUR        SUNNY     83  54  36 S17       30.02S HX  82
PEORIA         SUNNY     83  57  41 SW10G21   29.97F HX  82
6HR MIN TEMP:  63; 6HR MAX TEMP:  83;

LACON*         SUNNY     81  59  46 SW6       29.96F HX  81
LINCOLN*       MOSUNNY   84  61  46 S9G16     29.99F HX  84
SPRINGFIELD    MOSUNNY   81  60  48 SW9G18    29.98F HX  82
6HR MIN TEMP:  66; 6HR MAX TEMP:  84;

TAYLORVILLE    MOSUNNY   81  60  49 S15       30.01F HX  81
6HR MIN TEMP:  60; 6HR MAX TEMP:  81;

$$

ILZ033-039-045-046-055>057-062-063-241900-
EAST-CENTRAL ILLINOIS

CITY           SKY/WX    TMP DP  RH WIND       PRES   REMARKS
CHAMPAIGN      SUNNY     86  50  28 S22G30    30.02S HX  84
MATTOON        SUNNY     80  54  40 S14G21    30.03F HX  80
PARIS*         SUNNY     83  54  36 S8G16     30.05F HX  82
$$

ILZ079-100>102-241900-
SOUTHWEST ILLINOIS

CITY           SKY/WX    TMP DP  RH WIND       PRES   REMARKS
ALTON          MOSUNNY   77  63  61 S7        30.01S
BELLEVILLE     MOSUNNY   80  66  62 E7        29.99F HX  81
CAHOKIA*       SUNNY     82  63  52 SW5       29.99F HX  83
SPARTA*        SUNNY     78  63  60 S6        30.02F HX  80
$$

ILZ064>066-069>071-074>076-080>082-084>086-088>090-092>094-241900-
SOUTH-CENTRAL ILLINOIS

CITY           SKY/WX    TMP DP  RH WIND       PRES   REMARKS
CARBONDALE     CLOUDY    78  60  53 SE9       30.03F
6HR MIN TEMP:  64; 6HR MAX TEMP:  78; 6HR PCP: TRACE;

CAIRO*         SUNNY     83  61  47 S9        30.03F HX  83
EFFINGHAM*     PTSUNNY   80  59  49 S7G18     30.05F HX  80
MARION         PTSUNNY   77  61  57 S9        30.05F
MT. VERNON     CLOUDY    81  61  50 S13       30.05F HX  81
CENTRALIA*     CLOUDY    77  62  59 S9        30.03F
SALEM*         PTSUNNY   80  56  43 S12G18    30.03F HX  80
METROPOLIS*    CLOUDY    79  66  63 SE6       30.05F HX  81
$$

ILZ067-068-072-073-078-083-087-091-241900-
SOUTHEAST ILLINOIS

CITY           SKY/WX    TMP DP  RH WIND       PRES   REMARKS
LAWRENCEVILLE  SUNNY     84  55  36 S15G25    30.07F HX  83
FLORA*         CLOUDY    79  58  48 S9G16     30.06F HX  80
FAIRFIELD*     CLOUDY    77  60  54 S7        30.05F
HARRISBURG*    CLOUDY    76  62  60 S9        30.07F
ROBINSON*      SUNNY     80  59  49 S10       30.07F HX  80
CARMI*         CLOUDY    78  60  54 S9        30.06F
$$

ABBREVIATIONS USED IN REMARKS
   TC - TEMPERATURE IN CELSIUS
  WCI - WIND CHILL INDEX
   HX - HEAT INDEX
  VSB - VISIBILITY
$$





USA.gov is the U.S. government's official web portal to all federal, state and local government web resources and services.